Location: Bakhuizen
(52.8696°N, 5.4575°E)
Time: 09:16:46
(UTC+00:00)

Cosmos 1602 - Pass Details

Date: 11 May 2021
Orbit: 514 x 532 km, 82.5° (Epoch: 15 June)

Event Time Altitude Azimuth Distance (km) Brightness Sun altitude
Rises 20:18:46 0° 346° (NNW) 2,657 8.4 -7.4°
Reaches altitude 10° 20:20:55 10° 343° (NNW) 1,767 7.5 -7.6°
Maximum altitude 20:24:45 62° 263° (W) 595 4.2 -8.1°
Drops below altitude 10° 20:28:34 10° 183° (S) 1,762 6.0 -8.5°
Enters shadow 20:29:57 - 180° (S) 2,335 6.6 -8.6°
